Time,TemperatureF,DewpointF,PressureIn,WindDirection,WindDirectionDegrees,WindSpeedMPH,WindSpeedGustMPH,Humidity,HourlyPrecipIn,Conditions,Clouds,dailyrainin,SoftwareType,DateUTC
2013-10-02 00:05:00,67.1,60.7,30.03,NE,49,0.0,3.0,80,0.00,,,0.00,Wunderground v.1.13,2013-10-02 04:05:00,
2013-10-02 00:10:00,66.9,60.5,30.03,NE,49,1.0,1.0,80,0.00,,,0.00,Wunderground v.1.13,2013-10-02 04:10:00,
2013-10-02 00:15:00,66.8,60.4,30.03,NE,49,0.0,3.0,80,0.00,,,0.00,Wunderground v.1.13,2013-10-02 04:15:00,
2013-10-02 00:20:00,66.6,60.2,30.03,NE,49,0.0,3.0,80,0.00,,,0.00,Wunderground v.1.13,2013-10-02 04:20:00,
2013-10-02 00:25:00,66.3,60.3,30.03,NE,49,0.0,3.0,81,0.00,,,0.00,Wunderground v.1.13,2013-10-02 04:25:00,
2013-10-02 00:30:00,66.1,60.1,30.03,NE,49,0.0,3.0,81,0.00,,,0.00,Wunderground v.1.13,2013-10-02 04:30:00,
2013-10-02 00:35:00,66.0,60.3,30.03,NE,49,0.0,3.0,82,0.00,,,0.00,Wunderground v.1.13,2013-10-02 04:35:00,
2013-10-02 00:40:00,66.0,60.3,30.03,NE,49,0.0,3.0,82,0.00,,,0.00,Wunderground v.1.13,2013-10-02 04:40:00,
2013-10-02 00:45:00,65.8,60.2,30.03,NE,49,0.0,3.0,82,0.00,,,0.00,Wunderground v.1.13,2013-10-02 04:45:00,
2013-10-02 00:50:00,65.6,60.0,30.03,NE,49,0.0,3.0,82,0.00,,,0.00,Wunderground v.1.13,2013-10-02 04:50:00,
2013-10-02 00:55:00,65.6,60.0,30.03,NE,49,0.0,3.0,82,0.00,,,0.00,Wunderground v.1.13,2013-10-02 04:55:00,
2013-10-02 01:00:00,65.6,60.0,30.03,NE,49,0.0,3.0,82,0.00,,,0.00,Wunderground v.1.13,2013-10-02 05:00:00,
2013-10-02 01:10:00,65.5,60.2,30.04,NE,49,0.0,3.0,83,0.00,,,0.00,Wunderground v.1.13,2013-10-02 05:10:00,
2013-10-02 01:15:00,65.3,60.0,30.04,NE,49,0.0,3.0,83,0.00,,,0.00,Wunderground v.1.13,2013-10-02 05:15:00,
2013-10-02 01:20:00,65.2,59.9,30.03,NE,49,0.0,3.0,83,0.00,,,0.00,Wunderground v.1.13,2013-10-02 05:20:00,
2013-10-02 01:25:00,65.0,59.7,30.03,NE,49,0.0,3.0,83,0.00,,,0.00,Wunderground v.1.13,2013-10-02 05:25:00,
2013-10-02 01:30:00,64.8,59.5,30.03,NE,49,0.0,3.0,83,0.00,,,0.00,Wunderground v.1.13,2013-10-02 05:30:00,
2013-10-02 01:35:00,64.7,59.4,30.03,NE,49,0.0,3.0,83,0.00,,,0.00,Wunderground v.1.13,2013-10-02 05:35:00,
2013-10-02 01:40:00,64.5,59.6,30.03,NE,49,0.0,3.0,84,0.00,,,0.00,Wunderground v.1.13,2013-10-02 05:40:00,
2013-10-02 01:45:00,64.5,59.6,30.03,NE,49,0.0,3.0,84,0.00,,,0.00,Wunderground v.1.13,2013-10-02 05:45:00,
2013-10-02 01:50:00,64.3,59.4,30.04,NE,49,0.0,3.0,84,0.00,,,0.00,Wunderground v.1.13,2013-10-02 05:50:00,
2013-10-02 01:55:00,64.3,59.4,30.04,NE,49,0.0,3.0,84,0.00,,,0.00,Wunderground v.1.13,2013-10-02 05:55:00,
2013-10-02 02:00:00,64.3,59.7,30.04,NE,49,0.0,3.0,85,0.00,,,0.00,Wunderground v.1.13,2013-10-02 06:00:00,
2013-10-02 02:10:00,64.5,59.6,30.04,NE,49,0.0,3.0,84,0.00,,,0.00,Wunderground v.1.13,2013-10-02 06:10:00,
2013-10-02 02:15:00,64.3,59.4,30.04,NE,49,0.0,3.0,84,0.00,,,0.00,Wunderground v.1.13,2013-10-02 06:15:00,
2013-10-02 02:20:00,64.3,59.4,30.04,NE,49,0.0,3.0,84,0.00,,,0.00,Wunderground v.1.13,2013-10-02 06:20:00,
2013-10-02 02:25:00,64.3,59.4,30.04,NE,49,0.0,3.0,84,0.00,,,0.00,Wunderground v.1.13,2013-10-02 06:25:00,
2013-10-02 02:30:00,64.2,59.3,30.04,NE,49,0.0,3.0,84,0.00,,,0.00,Wunderground v.1.13,2013-10-02 06:30:00,
2013-10-02 02:35:00,64.2,59.3,30.04,NE,49,0.0,3.0,84,0.00,,,0.00,Wunderground v.1.13,2013-10-02 06:35:00,
2013-10-02 02:45:00,64.0,59.1,30.04,NE,49,0.0,3.0,84,0.00,,,0.00,Wunderground v.1.13,2013-10-02 06:45:00,
2013-10-02 02:50:00,63.9,59.3,30.04,NE,49,0.0,3.0,85,0.00,,,0.00,Wunderground v.1.13,2013-10-02 06:50:00,
2013-10-02 02:55:00,63.7,59.1,30.04,NE,49,0.0,3.0,85,0.00,,,0.00,Wunderground v.1.13,2013-10-02 06:55:00,
2013-10-02 03:00:00,63.7,59.1,30.04,NE,49,0.0,3.0,85,0.00,,,0.00,Wunderground v.1.13,2013-10-02 07:00:00,
2013-10-02 03:05:00,63.5,58.9,30.04,NE,49,0.0,3.0,85,0.00,,,0.00,Wunderground v.1.13,2013-10-02 07:05:00,
2013-10-02 03:15:00,63.2,58.9,30.04,NE,49,0.0,3.0,86,0.00,,,0.00,Wunderground v.1.13,2013-10-02 07:15:00,
2013-10-02 03:20:00,63.2,58.9,30.04,NE,49,0.0,3.0,86,0.00,,,0.00,Wunderground v.1.13,2013-10-02 07:20:00,
2013-10-02 03:25:00,63.4,59.1,30.04,NE,49,0.0,3.0,86,0.00,,,0.00,Wunderground v.1.13,2013-10-02 07:25:00,
2013-10-02 03:30:00,63.4,59.1,30.04,NE,49,0.0,3.0,86,0.00,,,0.00,Wunderground v.1.13,2013-10-02 07:30:00,
2013-10-02 03:35:00,63.4,59.1,30.04,NE,49,0.0,3.0,86,0.00,,,0.00,Wunderground v.1.13,2013-10-02 07:35:00,
2013-10-02 03:40:00,63.4,59.1,30.04,NE,49,0.0,3.0,86,0.00,,,0.00,Wunderground v.1.13,2013-10-02 07:40:00,
2013-10-02 03:50:00,63.4,59.1,30.04,NE,49,0.0,3.0,86,0.00,,,0.00,Wunderground v.1.13,2013-10-02 07:50:00,
2013-10-02 03:55:00,63.2,58.9,30.04,NE,49,0.0,3.0,86,0.00,,,0.00,Wunderground v.1.13,2013-10-02 07:55:00,
2013-10-02 04:00:00,63.2,58.9,30.04,NE,49,0.0,3.0,86,0.00,,,0.00,Wunderground v.1.13,2013-10-02 08:00:00,
2013-10-02 04:05:00,63.2,58.9,30.04,NE,49,0.0,3.0,86,0.00,,,0.00,Wunderground v.1.13,2013-10-02 08:05:00,
2013-10-02 04:10:00,63.2,58.9,30.04,NE,49,0.0,3.0,86,0.00,,,0.00,Wunderground v.1.13,2013-10-02 08:10:00,
2013-10-02 04:15:00,63.4,59.5,30.04,NE,49,0.0,3.0,87,0.00,,,0.00,Wunderground v.1.13,2013-10-02 08:15:00,
2013-10-02 04:20:00,63.4,59.5,30.03,NE,49,0.0,3.0,87,0.00,,,0.00,Wunderground v.1.13,2013-10-02 08:20:00,
2013-10-02 04:25:00,63.2,59.3,30.03,NE,49,0.0,3.0,87,0.00,,,0.00,Wunderground v.1.13,2013-10-02 08:25:00,
2013-10-02 04:30:00,63.1,58.8,30.03,NE,49,0.0,3.0,86,0.00,,,0.00,Wunderground v.1.13,2013-10-02 08:30:00,
2013-10-02 04:35:00,62.9,58.6,30.04,NE,51,0.0,3.0,86,0.00,,,0.00,Wunderground v.1.13,2013-10-02 08:35:00,
2013-10-02 04:40:00,62.7,58.5,30.04,NE,49,0.0,3.0,86,0.00,,,0.00,Wunderground v.1.13,2013-10-02 08:40:00,
2013-10-02 04:50:00,62.6,58.7,30.04,NE,49,0.0,3.0,87,0.00,,,0.00,Wunderground v.1.13,2013-10-02 08:50:00,
2013-10-02 04:55:00,62.4,58.5,30.04,NE,49,0.0,3.0,87,0.00,,,0.00,Wunderground v.1.13,2013-10-02 08:55:00,
2013-10-02 05:00:00,62.4,58.5,30.04,NE,49,0.0,3.0,87,0.00,,,0.00,Wunderground v.1.13,2013-10-02 09:00:00,
2013-10-02 05:05:00,62.4,58.5,30.04,NE,49,0.0,3.0,87,0.00,,,0.00,Wunderground v.1.13,2013-10-02 09:05:00,
2013-10-02 05:10:00,62.4,58.5,30.04,NE,49,0.0,3.0,87,0.00,,,0.00,Wunderground v.1.13,2013-10-02 09:10:00,
2013-10-02 05:15:00,62.4,58.8,30.04,NE,49,0.0,3.0,88,0.00,,,0.00,Wunderground v.1.13,2013-10-02 09:15:00,
2013-10-02 05:25:00,62.4,58.8,30.05,NE,49,0.0,3.0,88,0.00,,,0.00,Wunderground v.1.13,2013-10-02 09:25:00,
2013-10-02 05:30:00,62.4,58.8,30.05,NE,49,0.0,3.0,88,0.00,,,0.00,Wunderground v.1.13,2013-10-02 09:30:00,
2013-10-02 05:35:00,62.3,58.7,30.05,NE,49,0.0,3.0,88,0.00,,,0.00,Wunderground v.1.13,2013-10-02 09:35:00,
2013-10-02 05:40:00,62.3,58.7,30.05,NE,49,0.0,3.0,88,0.00,,,0.00,Wunderground v.1.13,2013-10-02 09:40:00,
2013-10-02 05:45:00,62.1,58.5,30.05,NE,49,0.0,3.0,88,0.00,,,0.00,Wunderground v.1.13,2013-10-02 09:45:00,
2013-10-02 05:55:00,62.1,58.5,30.05,NE,51,0.0,3.0,88,0.00,,,0.00,Wunderground v.1.13,2013-10-02 09:55:00,
2013-10-02 06:00:00,62.0,58.4,30.05,NE,49,0.0,3.0,88,0.00,,,0.00,Wunderground v.1.13,2013-10-02 10:00:00,
2013-10-02 06:05:00,62.0,58.4,30.05,NE,49,0.0,3.0,88,0.00,,,0.00,Wunderground v.1.13,2013-10-02 10:05:00,
2013-10-02 06:10:00,62.0,58.4,30.05,NE,49,0.0,3.0,88,0.00,,,0.00,Wunderground v.1.13,2013-10-02 10:10:00,
2013-10-02 06:15:00,62.1,58.5,30.05,NE,51,0.0,3.0,88,0.00,,,0.00,Wunderground v.1.13,2013-10-02 10:15:00,
2013-10-02 06:20:00,62.1,58.5,30.06,NE,49,0.0,3.0,88,0.00,,,0.00,Wunderground v.1.13,2013-10-02 10:20:00,
2013-10-02 06:30:00,62.1,58.5,30.06,NE,49,0.0,3.0,88,0.00,,,0.00,Wunderground v.1.13,2013-10-02 10:30:00,
2013-10-02 06:35:00,62.1,58.5,30.06,NE,51,0.0,3.0,88,0.00,,,0.00,Wunderground v.1.13,2013-10-02 10:35:00,
2013-10-02 06:40:00,62.0,58.4,30.06,NE,49,0.0,3.0,88,0.00,,,0.00,Wunderground v.1.13,2013-10-02 10:40:00,
2013-10-02 06:45:00,62.0,58.4,30.06,NE,49,0.0,3.0,88,0.00,,,0.00,Wunderground v.1.13,2013-10-02 10:45:00,
2013-10-02 06:50:00,62.0,58.4,30.07,NE,49,0.0,3.0,88,0.00,,,0.00,Wunderground v.1.13,2013-10-02 10:50:00,
2013-10-02 07:00:00,62.0,58.4,30.07,NE,49,0.0,3.0,88,0.00,,,0.00,Wunderground v.1.13,2013-10-02 11:00:00,
2013-10-02 07:05:00,62.0,58.4,30.07,NE,49,0.0,3.0,88,0.00,,,0.00,Wunderground v.1.13,2013-10-02 11:05:00,
2013-10-02 07:10:00,62.0,58.4,30.07,NE,49,0.0,3.0,88,0.00,,,0.00,Wunderground v.1.13,2013-10-02 11:10:00,
2013-10-02 07:15:00,62.0,58.4,30.07,NE,49,0.0,3.0,88,0.00,,,0.00,Wunderground v.1.13,2013-10-02 11:15:00,
2013-10-02 07:20:00,62.0,58.4,30.08,NE,49,0.0,3.0,88,0.00,,,0.00,Wunderground v.1.13,2013-10-02 11:20:00,
2013-10-02 07:25:00,62.0,58.4,30.08,NE,51,0.0,3.0,88,0.00,,,0.00,Wunderground v.1.13,2013-10-02 11:25:00,
2013-10-02 07:30:00,62.0,58.4,30.08,NE,49,0.0,3.0,88,0.00,,,0.00,Wunderground v.1.13,2013-10-02 11:30:00,
2013-10-02 07:35:00,62.1,58.8,30.08,NE,49,0.0,3.0,89,0.00,,,0.00,Wunderground v.1.13,2013-10-02 11:35:00,
2013-10-02 07:40:00,62.3,59.0,30.08,NE,49,1.0,3.0,89,0.00,,,0.00,Wunderground v.1.13,2013-10-02 11:40:00,
2013-10-02 07:45:00,62.4,58.8,30.08,NE,49,1.0,1.0,88,0.00,,,0.00,Wunderground v.1.13,2013-10-02 11:45:00,
2013-10-02 07:50:00,62.4,58.8,30.08,NE,49,0.0,3.0,88,0.00,,,0.00,Wunderground v.1.13,2013-10-02 11:50:00,
2013-10-02 08:00:00,62.6,59.3,30.08,NE,49,0.0,3.0,89,0.00,,,0.00,Wunderground v.1.13,2013-10-02 12:00:00,
2013-10-02 08:05:00,62.6,59.3,30.08,NE,49,0.0,3.0,89,0.00,,,0.00,Wunderground v.1.13,2013-10-02 12:05:00,
2013-10-02 08:10:00,62.7,59.4,30.08,NE,49,0.0,3.0,89,0.00,,,0.00,Wunderground v.1.13,2013-10-02 12:10:00,
2013-10-02 08:15:00,62.7,59.4,30.08,NE,49,1.0,3.0,89,0.00,,,0.00,Wunderground v.1.13,2013-10-02 12:15:00,
2013-10-02 08:20:00,62.7,59.1,30.09,NE,49,1.0,3.0,88,0.00,,,0.00,Wunderground v.1.13,2013-10-02 12:20:00,
2013-10-02 08:25:00,62.9,59.3,30.09,NE,49,1.0,1.0,88,0.00,,,0.00,Wunderground v.1.13,2013-10-02 12:25:00,
2013-10-02 08:30:00,62.9,59.3,30.09,NE,49,1.0,1.0,88,0.00,,,0.00,Wunderground v.1.13,2013-10-02 12:30:00,
2013-10-02 08:35:00,63.1,59.2,30.09,NE,49,0.0,3.0,87,0.00,,,0.00,Wunderground v.1.13,2013-10-02 12:35:00,
2013-10-02 08:40:00,62.9,59.0,30.09,NE,49,0.0,3.0,87,0.00,,,0.00,Wunderground v.1.13,2013-10-02 12:40:00,
2013-10-02 08:45:00,63.2,59.3,30.09,NE,49,1.0,1.0,87,0.00,,,0.00,Wunderground v.1.13,2013-10-02 12:45:00,
2013-10-02 08:50:00,63.2,59.3,30.10,NE,49,0.0,3.0,87,0.00,,,0.00,Wunderground v.1.13,2013-10-02 12:50:00,
2013-10-02 08:55:00,63.4,59.5,30.10,NE,49,0.0,3.0,87,0.00,,,0.00,Wunderground v.1.13,2013-10-02 12:55:00,
2013-10-02 09:00:00,63.5,59.6,30.10,NE,49,0.0,3.0,87,0.00,,,0.00,Wunderground v.1.13,2013-10-02 13:00:00,
2013-10-02 09:10:00,63.7,59.4,30.10,NE,49,2.0,3.0,86,0.00,,,0.00,Wunderground v.1.13,2013-10-02 13:10:00,
2013-10-02 09:15:00,63.9,59.6,30.10,NE,49,1.0,1.0,86,0.00,,,0.00,Wunderground v.1.13,2013-10-02 13:15:00,
2013-10-02 09:20:00,64.0,59.7,30.10,NE,51,1.0,3.0,86,0.00,,,0.00,Wunderground v.1.13,2013-10-02 13:20:00,
2013-10-02 09:25:00,64.2,59.9,30.10,NE,49,1.0,1.0,86,0.00,,,0.00,Wunderground v.1.13,2013-10-02 13:25:00,
2013-10-02 09:30:00,64.3,60.0,30.10,NE,49,0.0,3.0,86,0.00,,,0.00,Wunderground v.1.13,2013-10-02 13:30:00,
2013-10-02 09:40:00,64.8,60.2,30.10,NE,51,0.0,3.0,85,0.00,,,0.00,Wunderground v.1.13,2013-10-02 13:40:00,
2013-10-02 09:45:00,65.2,60.9,30.10,NE,49,0.0,3.0,86,0.00,,,0.00,Wunderground v.1.13,2013-10-02 13:45:00,
2013-10-02 09:50:00,65.5,61.2,30.10,NE,51,0.0,3.0,86,0.00,,,0.00,Wunderground v.1.13,2013-10-02 13:50:00,
2013-10-02 09:55:00,66.0,61.7,30.10,NE,51,0.0,3.0,86,0.00,,,0.00,Wunderground v.1.13,2013-10-02 13:55:00,
2013-10-02 10:00:00,66.3,61.7,30.10,NE,51,0.0,3.0,85,0.00,,,0.00,Wunderground v.1.13,2013-10-02 14:00:00,
2013-10-02 10:05:00,66.6,61.6,30.10,NE,49,0.0,3.0,84,0.00,,,0.00,Wunderground v.1.13,2013-10-02 14:05:00,
2013-10-02 10:15:00,67.3,62.0,30.10,NE,49,0.0,3.0,83,0.00,,,0.00,Wunderground v.1.13,2013-10-02 14:15:00,
2013-10-02 10:20:00,67.4,61.7,30.10,NE,49,0.0,3.0,82,0.00,,,0.00,Wunderground v.1.13,2013-10-02 14:20:00,
2013-10-02 10:25:00,67.8,62.1,30.10,NE,49,1.0,3.0,82,0.00,,,0.00,Wunderground v.1.13,2013-10-02 14:25:00,
2013-10-02 10:30:00,68.4,62.7,30.10,NE,47,2.0,2.0,82,0.00,,,0.00,Wunderground v.1.13,2013-10-02 14:30:00,
2013-10-02 10:35:00,68.9,62.8,30.11,NNE,30,2.0,2.0,81,0.00,,,0.00,Wunderground v.1.13,2013-10-02 14:35:00,
2013-10-02 10:45:00,69.6,63.2,30.11,NE,52,0.0,3.0,80,0.00,,,0.00,Wunderground v.1.13,2013-10-02 14:45:00,
2013-10-02 10:50:00,69.8,63.3,30.10,East,83,1.0,1.0,80,0.00,,,0.00,Wunderground v.1.13,2013-10-02 14:50:00,
2013-10-02 10:55:00,70.1,63.3,30.10,ENE,58,1.0,1.0,79,0.00,,,0.00,Wunderground v.1.13,2013-10-02 14:55:00,
2013-10-02 11:00:00,70.3,63.5,30.10,ENE,69,0.0,3.0,79,0.00,,,0.00,Wunderground v.1.13,2013-10-02 15:00:00,
2013-10-02 11:05:00,70.4,63.2,30.10,NE,55,1.0,1.0,78,0.00,,,0.00,Wunderground v.1.13,2013-10-02 15:05:00,
2013-10-02 11:10:00,70.8,63.6,30.10,NE,55,0.0,3.0,78,0.00,,,0.00,Wunderground v.1.13,2013-10-02 15:10:00,
2013-10-02 11:15:00,70.9,63.7,30.10,NE,55,0.0,3.0,78,0.00,,,0.00,Wunderground v.1.13,2013-10-02 15:15:00,
2013-10-02 11:20:00,70.9,63.7,30.10,ENE,58,1.0,3.0,78,0.00,,,0.00,Wunderground v.1.13,2013-10-02 15:20:00,
2013-10-02 11:25:00,71.3,64.1,30.10,NE,56,1.0,1.0,78,0.00,,,0.00,Wunderground v.1.13,2013-10-02 15:25:00,
2013-10-02 11:30:00,71.5,63.9,30.10,NE,49,0.0,3.0,77,0.00,,,0.00,Wunderground v.1.13,2013-10-02 15:30:00,
2013-10-02 11:35:00,72.0,64.4,30.10,NE,44,0.0,3.0,77,0.00,,,0.00,Wunderground v.1.13,2013-10-02 15:35:00,
2013-10-02 11:40:00,72.3,64.3,30.10,NE,44,0.0,3.0,76,0.00,,,0.00,Wunderground v.1.13,2013-10-02 15:40:00,
2013-10-02 11:50:00,72.8,64.8,30.09,ENE,61,1.0,3.0,76,0.00,,,0.00,Wunderground v.1.13,2013-10-02 15:50:00,
2013-10-02 11:55:00,73.0,65.0,30.09,ENE,61,1.0,1.0,76,0.00,,,0.00,Wunderground v.1.13,2013-10-02 15:55:00,
2013-10-02 12:00:00,73.0,65.0,30.09,ENE,61,1.0,1.0,76,0.00,,,0.00,Wunderground v.1.13,2013-10-02 16:00:00,
2013-10-02 12:05:00,73.2,65.6,30.09,South,174,0.0,3.0,77,0.00,,,0.00,Wunderground v.1.13,2013-10-02 16:05:00,
2013-10-02 12:10:00,73.2,65.6,30.09,SSW,202,0.0,3.0,77,0.00,,,0.00,Wunderground v.1.13,2013-10-02 16:10:00,
2013-10-02 12:15:00,73.3,65.3,30.09,West,274,1.0,1.0,76,0.00,,,0.00,Wunderground v.1.13,2013-10-02 16:15:00,
2013-10-02 12:20:00,73.5,65.1,30.09,West,278,1.0,3.0,75,0.00,,,0.00,Wunderground v.1.13,2013-10-02 16:20:00,
2013-10-02 12:25:00,73.9,65.5,30.09,SW,216,1.0,1.0,75,0.00,,,0.00,Wunderground v.1.13,2013-10-02 16:25:00,
2013-10-02 12:30:00,74.0,65.2,30.09,SW,216,0.0,3.0,74,0.00,,,0.00,Wunderground v.1.13,2013-10-02 16:30:00,
2013-10-02 12:35:00,74.2,65.0,30.08,SW,216,0.0,3.0,73,0.00,,,0.00,Wunderground v.1.13,2013-10-02 16:35:00,
2013-10-02 12:40:00,74.2,65.0,30.08,SW,216,0.0,3.0,73,0.00,,,0.00,Wunderground v.1.13,2013-10-02 16:40:00,
2013-10-02 12:45:00,74.4,65.6,30.08,SW,216,0.0,3.0,74,0.00,,,0.00,Wunderground v.1.13,2013-10-02 16:45:00,
2013-10-02 12:55:00,74.7,66.2,30.09,SW,216,0.0,3.0,75,0.00,,,0.00,Wunderground v.1.13,2013-10-02 16:55:00,
2013-10-02 13:00:00,74.9,65.7,30.09,SW,217,0.0,3.0,73,0.00,,,0.00,Wunderground v.1.13,2013-10-02 17:00:00,
2013-10-02 13:05:00,75.1,65.9,30.08,SW,220,0.0,3.0,73,0.00,,,0.00,Wunderground v.1.13,2013-10-02 17:05:00,
2013-10-02 13:10:00,75.4,65.7,30.08,ESE,112,0.0,3.0,72,0.00,,,0.00,Wunderground v.1.13,2013-10-02 17:10:00,
2013-10-02 13:15:00,75.4,66.1,30.08,ESE,112,1.0,3.0,73,0.00,,,0.00,Wunderground v.1.13,2013-10-02 17:15:00,
2013-10-02 13:25:00,76.1,65.6,30.08,ENE,69,1.0,3.0,70,0.00,,,0.00,Wunderground v.1.13,2013-10-02 17:25:00,
2013-10-02 13:30:00,76.3,65.8,30.08,ENE,69,1.0,1.0,70,0.00,,,0.00,Wunderground v.1.13,2013-10-02 17:30:00,
2013-10-02 13:35:00,76.7,65.8,30.08,ENE,66,2.0,2.0,69,0.00,,,0.00,Wunderground v.1.13,2013-10-02 17:35:00,
2013-10-02 13:40:00,77.4,65.6,30.08,NNE,28,1.0,3.0,67,0.00,,,0.00,Wunderground v.1.13,2013-10-02 17:40:00,
2013-10-02 13:45:00,77.4,65.6,30.08,East,82,0.0,3.0,67,0.00,,,0.00,Wunderground v.1.13,2013-10-02 17:45:00,
2013-10-02 13:50:00,77.6,66.2,30.07,East,82,1.0,3.0,68,0.00,,,0.00,Wunderground v.1.13,2013-10-02 17:50:00,
2013-10-02 14:00:00,77.9,65.6,30.07,NNW,335,1.0,3.0,66,0.00,,,0.00,Wunderground v.1.13,2013-10-02 18:00:00,
2013-10-02 14:05:00,78.5,65.8,30.06,ENE,69,1.0,3.0,65,0.00,,,0.00,Wunderground v.1.13,2013-10-02 18:05:00,
2013-10-02 14:10:00,78.6,65.8,30.06,ENE,62,1.0,1.0,65,0.00,,,0.00,Wunderground v.1.13,2013-10-02 18:10:00,
2013-10-02 14:15:00,78.8,65.6,30.06,East,97,1.0,3.0,64,0.00,,,0.00,Wunderground v.1.13,2013-10-02 18:15:00,
2013-10-02 14:20:00,79.0,65.8,30.06,ENE,64,1.0,1.0,64,0.00,,,0.00,Wunderground v.1.13,2013-10-02 18:20:00,
2013-10-02 14:30:00,79.6,65.4,30.06,East,83,2.0,3.0,62,0.00,,,0.00,Wunderground v.1.13,2013-10-02 18:30:00,
2013-10-02 14:35:00,79.2,66.4,30.05,East,93,2.0,2.0,65,0.00,,,0.00,Wunderground v.1.13,2013-10-02 18:35:00,
2013-10-02 14:40:00,79.6,66.3,30.05,NE,40,2.0,3.0,64,0.00,,,0.00,Wunderground v.1.13,2013-10-02 18:40:00,
2013-10-02 14:45:00,79.9,65.7,30.05,NE,52,1.0,1.0,62,0.00,,,0.00,Wunderground v.1.13,2013-10-02 18:45:00,
2013-10-02 14:50:00,80.1,65.9,30.04,East,80,1.0,3.0,62,0.00,,,0.00,Wunderground v.1.13,2013-10-02 18:50:00,
2013-10-02 14:55:00,80.3,65.6,30.04,East,88,2.0,3.0,61,0.00,,,0.00,Wunderground v.1.13,2013-10-02 18:55:00,
2013-10-02 15:05:00,81.1,65.9,30.04,ENE,76,0.0,5.0,60,0.00,,,0.00,Wunderground v.1.13,2013-10-02 19:05:00,
2013-10-02 15:10:00,80.9,65.7,30.04,East,80,1.0,3.0,60,0.00,,,0.00,Wunderground v.1.13,2013-10-02 19:10:00,
2013-10-02 15:15:00,80.3,65.6,30.04,East,85,2.0,2.0,61,0.00,,,0.00,Wunderground v.1.13,2013-10-02 19:15:00,
2013-10-02 15:20:00,80.1,65.4,30.04,East,83,1.0,1.0,61,0.00,,,0.00,Wunderground v.1.13,2013-10-02 19:20:00,
2013-10-02 15:25:00,80.1,65.0,30.04,East,88,0.0,3.0,60,0.00,,,0.00,Wunderground v.1.13,2013-10-02 19:25:00,
2013-10-02 15:35:00,81.1,64.9,30.04,ENE,65,1.0,3.0,58,0.00,,,0.00,Wunderground v.1.13,2013-10-02 19:35:00,
2013-10-02 15:40:00,81.6,65.4,30.04,ESE,114,0.0,3.0,58,0.00,,,0.00,Wunderground v.1.13,2013-10-02 19:40:00,
2013-10-02 15:45:00,82.0,65.3,30.04,SE,127,0.0,3.0,57,0.00,,,0.00,Wunderground v.1.13,2013-10-02 19:45:00,
2013-10-02 15:50:00,82.2,64.9,30.03,SE,126,0.0,3.0,56,0.00,,,0.00,Wunderground v.1.13,2013-10-02 19:50:00,
2013-10-02 15:55:00,82.2,66.0,30.03,SSE,148,0.0,3.0,58,0.00,,,0.00,Wunderground v.1.13,2013-10-02 19:55:00,
2013-10-02 16:00:00,82.4,64.6,30.03,SSW,213,0.0,3.0,55,0.00,,,0.00,Wunderground v.1.13,2013-10-02 20:00:00,
2013-10-02 16:10:00,82.8,65.0,30.02,SW,215,0.0,3.0,55,0.00,,,0.00,Wunderground v.1.13,2013-10-02 20:10:00,
2013-10-02 16:15:00,82.6,64.3,30.02,West,272,0.0,3.0,54,0.00,,,0.00,Wunderground v.1.13,2013-10-02 20:15:00,
2013-10-02 16:20:00,82.4,65.1,30.03,ESE,120,0.0,3.0,56,0.00,,,0.00,Wunderground v.1.13,2013-10-02 20:20:00,
2013-10-02 16:25:00,82.0,64.8,30.03,SE,138,1.0,1.0,56,0.00,,,0.00,Wunderground v.1.13,2013-10-02 20:25:00,
2013-10-02 16:30:00,82.0,64.8,30.03,SE,131,0.0,3.0,56,0.00,,,0.00,Wunderground v.1.13,2013-10-02 20:30:00,
2013-10-02 16:40:00,82.0,64.8,30.03,SE,131,0.0,3.0,56,0.00,,,0.00,Wunderground v.1.13,2013-10-02 20:40:00,
2013-10-02 16:45:00,81.8,64.6,30.03,SE,131,0.0,3.0,56,0.00,,,0.00,Wunderground v.1.13,2013-10-02 20:45:00,
2013-10-02 16:50:00,82.0,64.8,30.02,SE,131,0.0,3.0,56,0.00,,,0.00,Wunderground v.1.13,2013-10-02 20:50:00,
2013-10-02 16:55:00,82.0,64.8,30.02,SE,130,0.0,3.0,56,0.00,,,0.00,Wunderground v.1.13,2013-10-02 20:55:00,
2013-10-02 17:00:00,81.8,65.1,30.02,SE,130,0.0,3.0,57,0.00,,,0.00,Wunderground v.1.13,2013-10-02 21:00:00,
2013-10-02 17:05:00,81.6,64.4,30.02,SE,127,0.0,3.0,56,0.00,,,0.00,Wunderground v.1.13,2013-10-02 21:05:00,
2013-10-02 17:15:00,81.1,64.4,30.02,SE,127,0.0,3.0,57,0.00,,,0.00,Wunderground v.1.13,2013-10-02 21:15:00,
2013-10-02 17:20:00,80.9,65.2,30.02,SE,127,0.0,3.0,59,0.00,,,0.00,Wunderground v.1.13,2013-10-02 21:20:00,
2013-10-02 17:25:00,81.1,65.4,30.02,SE,127,0.0,3.0,59,0.00,,,0.00,Wunderground v.1.13,2013-10-02 21:25:00,
2013-10-02 17:30:00,81.2,65.0,30.02,SE,127,0.0,3.0,58,0.00,,,0.00,Wunderground v.1.13,2013-10-02 21:30:00,
2013-10-02 17:35:00,81.6,65.4,30.01,SE,133,0.0,3.0,58,0.00,,,0.00,Wunderground v.1.13,2013-10-02 21:35:00,
2013-10-02 17:40:00,81.8,65.1,30.01,SE,133,0.0,3.0,57,0.00,,,0.00,Wunderground v.1.13,2013-10-02 21:40:00,
2013-10-02 17:45:00,82.0,65.3,30.01,SE,133,0.0,3.0,57,0.00,,,0.00,Wunderground v.1.13,2013-10-02 21:45:00,
2013-10-02 17:50:00,82.2,64.9,30.01,SE,133,0.0,3.0,56,0.00,,,0.00,Wunderground v.1.13,2013-10-02 21:50:00,
2013-10-02 17:55:00,82.2,65.4,30.01,SE,133,0.0,3.0,57,0.00,,,0.00,Wunderground v.1.13,2013-10-02 21:55:00,
2013-10-02 18:00:00,82.0,64.8,30.01,SE,133,0.0,3.0,56,0.00,,,0.00,Wunderground v.1.13,2013-10-02 22:00:00,
2013-10-02 18:10:00,81.4,65.2,30.01,SE,133,0.0,3.0,58,0.00,,,0.00,Wunderground v.1.13,2013-10-02 22:10:00,
2013-10-02 18:15:00,81.1,65.9,30.01,SE,133,0.0,3.0,60,0.00,,,0.00,Wunderground v.1.13,2013-10-02 22:15:00,
2013-10-02 18:20:00,80.7,65.0,30.01,SE,133,0.0,3.0,59,0.00,,,0.00,Wunderground v.1.13,2013-10-02 22:20:00,
2013-10-02 18:25:00,80.3,64.7,30.01,SE,133,0.0,3.0,59,0.00,,,0.00,Wunderground v.1.13,2013-10-02 22:25:00,
2013-10-02 18:30:00,79.9,65.2,30.01,SE,133,0.0,3.0,61,0.00,,,0.00,Wunderground v.1.13,2013-10-02 22:30:00,
2013-10-02 18:35:00,79.6,65.4,30.01,SE,133,0.0,3.0,62,0.00,,,0.00,Wunderground v.1.13,2013-10-02 22:35:00,
2013-10-02 18:40:00,79.4,66.2,30.01,SE,133,0.0,3.0,64,0.00,,,0.00,Wunderground v.1.13,2013-10-02 22:40:00,
2013-10-02 18:50:00,78.5,66.6,30.02,SE,133,0.0,3.0,67,0.00,,,0.00,Wunderground v.1.13,2013-10-02 22:50:00,
2013-10-02 18:55:00,78.1,66.7,30.02,SE,131,0.0,3.0,68,0.00,,,0.00,Wunderground v.1.13,2013-10-02 22:55:00,
2013-10-02 19:00:00,77.7,66.7,30.02,SE,131,0.0,3.0,69,0.00,,,0.00,Wunderground v.1.13,2013-10-02 23:00:00,
2013-10-02 19:05:00,77.2,66.2,30.03,SE,131,0.0,3.0,69,0.00,,,0.00,Wunderground v.1.13,2013-10-02 23:05:00,
2013-10-02 19:10:00,77.0,66.5,30.03,SE,131,0.0,3.0,70,0.00,,,0.00,Wunderground v.1.13,2013-10-02 23:10:00,
2013-10-02 19:20:00,76.5,66.0,30.03,SE,131,0.0,3.0,70,0.00,,,0.00,Wunderground v.1.13,2013-10-02 23:20:00,
2013-10-02 19:25:00,76.1,65.6,30.03,SE,131,0.0,3.0,70,0.00,,,0.00,Wunderground v.1.13,2013-10-02 23:25:00,
2013-10-02 19:30:00,76.0,65.9,30.03,SE,131,0.0,3.0,71,0.00,,,0.00,Wunderground v.1.13,2013-10-02 23:30:00,
2013-10-02 19:35:00,75.8,65.7,30.03,SE,131,0.0,3.0,71,0.00,,,0.00,Wunderground v.1.13,2013-10-02 23:35:00,
2013-10-02 19:40:00,75.4,65.7,30.03,SE,131,0.0,3.0,72,0.00,,,0.00,Wunderground v.1.13,2013-10-02 23:40:00,
2013-10-02 19:45:00,75.3,65.6,30.03,SE,131,0.0,3.0,72,0.00,,,0.00,Wunderground v.1.13,2013-10-02 23:45:00,
2013-10-02 19:55:00,74.9,66.1,30.03,SE,131,0.0,3.0,74,0.00,,,0.00,Wunderground v.1.13,2013-10-02 23:55:00,
2013-10-02 20:00:00,74.7,65.9,30.03,SE,131,0.0,3.0,74,0.00,,,0.00,Wunderground v.1.13,2013-10-03 00:00:00,
2013-10-02 20:05:00,74.6,66.1,30.03,SE,131,0.0,3.0,75,0.00,,,0.00,Wunderground v.1.13,2013-10-03 00:05:00,
2013-10-02 20:10:00,74.4,66.0,30.03,SE,131,1.0,1.0,75,0.00,,,0.00,Wunderground v.1.13,2013-10-03 00:10:00,
2013-10-02 20:15:00,74.4,66.0,30.03,SE,131,1.0,1.0,75,0.00,,,0.00,Wunderground v.1.13,2013-10-03 00:15:00,
2013-10-02 20:25:00,74.2,65.8,30.03,SE,131,0.0,3.0,75,0.00,,,0.00,Wunderground v.1.13,2013-10-03 00:25:00,
2013-10-02 20:30:00,74.0,65.6,30.03,SE,131,0.0,3.0,75,0.00,,,0.00,Wunderground v.1.13,2013-10-03 00:30:00,
2013-10-02 20:35:00,74.0,65.6,30.03,SE,131,0.0,3.0,75,0.00,,,0.00,Wunderground v.1.13,2013-10-03 00:35:00,
2013-10-02 20:40:00,73.9,65.5,30.03,SE,131,0.0,3.0,75,0.00,,,0.00,Wunderground v.1.13,2013-10-03 00:40:00,
2013-10-02 20:45:00,73.9,65.5,30.03,SE,131,0.0,3.0,75,0.00,,,0.00,Wunderground v.1.13,2013-10-03 00:45:00,
2013-10-02 20:50:00,73.9,65.5,30.03,SE,131,1.0,1.0,75,0.00,,,0.00,Wunderground v.1.13,2013-10-03 00:50:00,
2013-10-02 21:00:00,73.7,65.3,30.03,SE,131,0.0,3.0,75,0.00,,,0.00,Wunderground v.1.13,2013-10-03 01:00:00,
2013-10-02 21:05:00,73.7,65.3,30.03,SE,131,0.0,3.0,75,0.00,,,0.00,Wunderground v.1.13,2013-10-03 01:05:00,
2013-10-02 21:10:00,73.7,65.3,30.03,SE,131,0.0,3.0,75,0.00,,,0.00,Wunderground v.1.13,2013-10-03 01:10:00,
2013-10-02 21:15:00,73.9,65.1,30.03,SE,131,0.0,3.0,74,0.00,,,0.00,Wunderground v.1.13,2013-10-03 01:15:00,
2013-10-02 21:20:00,73.9,65.1,30.03,SE,131,0.0,3.0,74,0.00,,,0.00,Wunderground v.1.13,2013-10-03 01:20:00,
2013-10-02 21:25:00,74.0,64.8,30.03,SE,131,1.0,3.0,73,0.00,,,0.00,Wunderground v.1.13,2013-10-03 01:25:00,
2013-10-02 21:30:00,74.6,65.8,30.03,SE,130,1.0,1.0,74,0.00,,,0.00,Wunderground v.1.13,2013-10-03 01:30:00,
2013-10-02 21:35:00,75.1,65.5,30.03,NE,41,1.0,1.0,72,0.00,,,0.00,Wunderground v.1.13,2013-10-03 01:35:00,
2013-10-02 21:40:00,75.3,65.6,30.03,ENE,68,1.0,6.0,72,0.00,,,0.00,Wunderground v.1.13,2013-10-03 01:40:00,
2013-10-02 21:45:00,75.3,66.0,30.03,ENE,75,1.0,3.0,73,0.00,,,0.00,Wunderground v.1.13,2013-10-03 01:45:00,
2013-10-02 21:50:00,75.1,65.9,30.03,East,79,1.0,3.0,73,0.00,,,0.00,Wunderground v.1.13,2013-10-03 01:50:00,
2013-10-02 22:00:00,74.9,66.1,30.03,North,357,1.0,1.0,74,0.00,,,0.00,Wunderground v.1.13,2013-10-03 02:00:00,
2013-10-02 22:05:00,74.9,66.1,30.04,NNE,20,1.0,1.0,74,0.00,,,0.00,Wunderground v.1.13,2013-10-03 02:05:00,
2013-10-02 22:10:00,74.7,65.9,30.04,NNE,17,0.0,3.0,74,0.00,,,0.00,Wunderground v.1.13,2013-10-03 02:10:00,
2013-10-02 22:15:00,74.7,66.2,30.04,ENE,71,1.0,1.0,75,0.00,,,0.00,Wunderground v.1.13,2013-10-03 02:15:00,
2013-10-02 22:20:00,74.6,66.1,30.03,North,0,1.0,1.0,75,0.00,,,0.00,Wunderground v.1.13,2013-10-03 02:20:00,
2013-10-02 22:25:00,74.6,66.1,30.03,ENE,58,1.0,3.0,75,0.00,,,0.00,Wunderground v.1.13,2013-10-03 02:25:00,
2013-10-02 22:35:00,74.6,66.1,30.03,ENE,62,1.0,3.0,75,0.00,,,0.00,Wunderground v.1.13,2013-10-03 02:35:00,
2013-10-02 22:40:00,74.2,66.1,30.03,ENE,62,1.0,1.0,76,0.00,,,0.00,Wunderground v.1.13,2013-10-03 02:40:00,
2013-10-02 22:45:00,74.0,66.3,30.03,ENE,62,1.0,1.0,77,0.00,,,0.00,Wunderground v.1.13,2013-10-03 02:45:00,
2013-10-02 22:50:00,73.9,66.6,30.04,ENE,62,0.0,3.0,78,0.00,,,0.00,Wunderground v.1.13,2013-10-03 02:50:00,
2013-10-02 22:55:00,73.9,66.6,30.04,ENE,62,0.0,3.0,78,0.00,,,0.00,Wunderground v.1.13,2013-10-03 02:55:00,
2013-10-02 23:05:00,73.5,66.2,30.04,ENE,62,0.0,3.0,78,0.00,,,0.00,Wunderground v.1.13,2013-10-03 03:05:00,
2013-10-02 23:10:00,73.3,66.4,30.04,ENE,62,0.0,3.0,79,0.00,,,0.00,Wunderground v.1.13,2013-10-03 03:10:00,
2013-10-02 23:15:00,73.5,66.6,30.04,ENE,62,0.0,3.0,79,0.00,,,0.00,Wunderground v.1.13,2013-10-03 03:15:00,
2013-10-02 23:20:00,73.7,66.8,30.04,ENE,62,0.0,3.0,79,0.00,,,0.00,Wunderground v.1.13,2013-10-03 03:20:00,
2013-10-02 23:25:00,73.9,66.6,30.04,ENE,61,0.0,3.0,78,0.00,,,0.00,Wunderground v.1.13,2013-10-03 03:25:00,
2013-10-02 23:30:00,73.9,66.6,30.04,ENE,61,0.0,3.0,78,0.00,,,0.00,Wunderground v.1.13,2013-10-03 03:30:00,
2013-10-02 23:40:00,73.9,67.0,30.04,ENE,61,0.0,3.0,79,0.00,,,0.00,Wunderground v.1.13,2013-10-03 03:40:00,
2013-10-02 23:45:00,73.9,67.0,30.04,ENE,61,0.0,3.0,79,0.00,,,0.00,Wunderground v.1.13,2013-10-03 03:45:00,
2013-10-02 23:50:00,74.0,66.7,30.04,ENE,59,0.0,3.0,78,0.00,,,0.00,Wunderground v.1.13,2013-10-03 03:50:00,
2013-10-02 23:55:00,73.9,66.6,30.04,ENE,59,0.0,3.0,78,0.00,,,0.00,Wunderground v.1.13,2013-10-03 03:55:00,